TimeCST,TemperatureF,Dew PointF,Humidity,Sea Level PressureIn,VisibilityMPH,Wind Direction,Wind SpeedMPH,Gust SpeedMPH,PrecipitationIn,Events,Conditions,WindDirDegrees,DateUTC
12:10 AM,47.3,39.4,74,29.40,10.0,SW,10.4,-,N/A,,Clear,220,2013-11-17 06:10:00
12:29 AM,47.3,39.2,73,29.38,10.0,SW,9.2,-,N/A,,Clear,220,2013-11-17 06:29:00
12:50 AM,45.5,38.7,77,29.40,10.0,SSW,11.5,-,N/A,,Clear,200,2013-11-17 06:50:00
1:10 AM,46.4,37.9,72,29.40,10.0,SW,11.5,17.3,N/A,,Clear,220,2013-11-17 07:10:00
1:30 AM,46.2,37.4,71,29.39,10.0,SSW,11.5,-,N/A,,Clear,210,2013-11-17 07:30:00
1:50 AM,45.9,37.0,71,29.38,10.0,SW,9.2,-,N/A,,Clear,220,2013-11-17 07:50:00
2:09 AM,44.8,36.9,74,29.39,10.0,SW,9.2,-,N/A,,Clear,220,2013-11-17 08:09:00
2:30 AM,44.1,36.5,75,29.39,10.0,SSW,6.9,-,N/A,,Clear,200,2013-11-17 08:30:00
2:50 AM,43.2,36.0,76,29.39,10.0,SW,6.9,-,N/A,,Clear,220,2013-11-17 08:50:00
3:10 AM,43.3,36.5,77,29.39,10.0,SSW,6.9,-,N/A,,Clear,200,2013-11-17 09:10:00
3:29 AM,42.1,36.7,81,29.38,10.0,SSW,5.8,-,N/A,,Clear,210,2013-11-17 09:29:00
3:50 AM,41.4,36.5,83,29.39,10.0,South,8.1,-,N/A,,Clear,180,2013-11-17 09:50:00
4:09 AM,42.6,36.9,80,29.38,10.0,SSW,6.9,-,N/A,,Clear,210,2013-11-17 10:09:00
4:30 AM,42.3,36.7,81,29.38,10.0,SSW,8.1,-,N/A,,Clear,200,2013-11-17 10:30:00
4:50 AM,43.9,37.0,77,29.37,10.0,SSW,8.1,-,N/A,,Clear,210,2013-11-17 10:50:00
5:09 AM,43.0,37.4,81,29.37,10.0,SW,5.8,-,N/A,,Clear,220,2013-11-17 11:09:00
5:30 AM,43.7,37.0,77,29.35,10.0,SW,8.1,-,N/A,,Scattered Clouds,220,2013-11-17 11:30:00
5:50 AM,42.1,36.7,81,29.34,10.0,WSW,3.5,-,N/A,,Scattered Clouds,250,2013-11-17 11:50:00
6:09 AM,43.2,36.1,76,29.33,10.0,West,4.6,-,N/A,,Clear,260,2013-11-17 12:09:00
6:30 AM,42.3,36.0,78,29.33,10.0,Calm,Calm,-,N/A,,Clear,0,2013-11-17 12:30:00
6:49 AM,41.4,35.8,81,29.33,10.0,WNW,3.5,-,N/A,,Clear,290,2013-11-17 12:49:00
7:10 AM,41.5,35.4,79,29.35,10.0,West,6.9,-,N/A,,Clear,260,2013-11-17 13:10:00
7:29 AM,42.6,35.2,75,29.35,10.0,West,10.4,-,N/A,,Scattered Clouds,280,2013-11-17 13:29:00
7:50 AM,42.8,35.1,74,29.35,10.0,West,13.8,-,N/A,,Overcast,280,2013-11-17 13:50:00
8:10 AM,42.3,35.4,77,29.34,10.0,WNW,13.8,-,N/A,,Overcast,300,2013-11-17 14:10:00
8:30 AM,42.8,35.6,76,29.34,10.0,WNW,13.8,-,N/A,,Overcast,300,2013-11-17 14:30:00
8:49 AM,42.8,36.0,77,29.34,10.0,WNW,16.1,-,N/A,,Overcast,300,2013-11-17 14:49:00
9:10 AM,42.8,36.7,79,29.36,10.0,WNW,16.1,19.6,N/A,,Overcast,290,2013-11-17 15:10:00
9:30 AM,42.3,37.8,84,29.36,10.0,WNW,16.1,-,N/A,Rain,Light Rain,300,2013-11-17 15:30:00
9:49 AM,41.9,38.7,88,29.36,7.0,WNW,12.7,-,0.01,Rain,Rain,300,2013-11-17 15:49:00
10:10 AM,41.2,39.2,93,29.38,5.0,WNW,11.5,18.4,N/A,Rain,Light Rain,300,2013-11-17 16:10:00
10:29 AM,41.0,39.4,94,29.38,3.0,NW,10.4,-,0.04,Rain,Rain,310,2013-11-17 16:29:00
10:50 AM,41.0,39.4,94,29.38,4.0,WNW,8.1,-,0.07,Rain,Light Rain,300,2013-11-17 16:50:00
11:10 AM,41.0,39.6,95,29.37,4.0,WNW,11.5,-,0.01,Rain,Light Rain,300,2013-11-17 17:10:00
11:30 AM,41.0,39.6,95,29.36,4.0,WNW,13.8,-,0.05,Rain,Rain,300,2013-11-17 17:30:00
11:49 AM,41.4,40.1,95,29.36,5.0,WNW,11.5,-,0.06,Rain,Light Rain,300,2013-11-17 17:49:00
12:10 PM,41.4,39.4,93,29.36,7.0,WNW,13.8,19.6,N/A,,Overcast,290,2013-11-17 18:10:00
12:30 PM,41.0,39.2,93,29.36,7.0,WNW,17.3,-,N/A,,Overcast,300,2013-11-17 18:30:00
12:49 PM,40.8,38.8,93,29.36,7.0,NW,21.9,27.6,N/A,,Overcast,310,2013-11-17 18:49:00
1:10 PM,41.0,38.5,91,29.37,10.0,NW,18.4,27.6,N/A,,Overcast,310,2013-11-17 19:10:00
1:29 PM,41.0,37.6,88,29.38,10.0,NW,23.0,32.2,N/A,,Overcast,310,2013-11-17 19:29:00
1:50 PM,41.2,37.6,87,29.38,10.0,NW,23.0,29.9,N/A,,Overcast,310,2013-11-17 19:50:00
2:10 PM,41.2,37.4,86,29.40,10.0,NW,21.9,32.2,N/A,,Overcast,310,2013-11-17 20:10:00
2:29 PM,41.4,37.4,86,29.42,10.0,NW,23.0,32.2,N/A,,Overcast,310,2013-11-17 20:29:00
2:49 PM,41.7,37.4,85,29.44,10.0,NW,21.9,31.1,N/A,,Overcast,310,2013-11-17 20:49:00
3:10 PM,41.9,37.2,83,29.47,10.0,WNW,20.7,31.1,N/A,,Overcast,300,2013-11-17 21:10:00
3:30 PM,41.7,37.0,83,29.49,10.0,WNW,24.2,27.6,N/A,,Overcast,300,2013-11-17 21:30:00
3:49 PM,41.4,36.5,83,29.51,10.0,NW,23.0,35.7,N/A,,Overcast,310,2013-11-17 21:49:00
4:10 PM,41.4,35.6,80,29.53,10.0,NW,19.6,33.4,N/A,,Overcast,310,2013-11-17 22:10:00
4:29 PM,41.0,36.3,83,29.56,10.0,WNW,23.0,26.5,N/A,,Overcast,300,2013-11-17 22:29:00
4:50 PM,40.6,35.1,80,29.58,10.0,NW,17.3,28.8,N/A,,Overcast,310,2013-11-17 22:50:00
5:09 PM,39.7,35.1,83,29.60,10.0,WNW,19.6,29.9,N/A,,Mostly Cloudy,300,2013-11-17 23:09:00
5:30 PM,39.4,34.9,84,29.62,10.0,WNW,16.1,-,N/A,,Scattered Clouds,300,2013-11-17 23:30:00
5:50 PM,38.8,34.9,86,29.62,10.0,WNW,18.4,23.0,N/A,,Scattered Clouds,300,2013-11-17 23:50:00
6:09 PM,38.8,34.7,85,29.64,10.0,WNW,18.4,24.2,N/A,,Clear,290,2013-11-18 00:09:00
6:30 PM,38.7,33.8,83,29.65,10.0,WNW,20.7,26.5,N/A,,Clear,290,2013-11-18 00:30:00
6:50 PM,38.5,33.4,82,29.67,10.0,NW,27.6,32.2,N/A,,Scattered Clouds,310,2013-11-18 00:50:00
7:09 PM,38.1,33.1,82,29.68,10.0,NW,24.2,32.2,N/A,,Overcast,310,2013-11-18 01:09:00
7:30 PM,37.8,32.0,80,29.69,10.0,NW,32.2,43.7,N/A,,Overcast,310,2013-11-18 01:30:00
7:49 PM,37.8,32.2,80,29.69,10.0,NW,20.7,35.7,N/A,,Overcast,310,2013-11-18 01:49:00
8:10 PM,37.8,32.5,81,29.70,10.0,WNW,20.7,28.8,N/A,,Overcast,300,2013-11-18 02:10:00
8:29 PM,37.8,32.9,83,29.72,10.0,WNW,24.2,34.5,N/A,,Overcast,290,2013-11-18 02:29:00
8:50 PM,37.2,31.6,80,29.73,10.0,WNW,27.6,36.8,N/A,,Overcast,300,2013-11-18 02:50:00
9:10 PM,36.1,30.9,81,29.73,10.0,WNW,24.2,39.1,N/A,,Overcast,300,2013-11-18 03:10:00
9:29 PM,35.6,29.8,80,29.74,10.0,NW,26.5,39.1,N/A,,Mostly Cloudy,310,2013-11-18 03:29:00
9:49 PM,35.6,29.3,78,29.75,10.0,WNW,26.5,39.1,N/A,,Overcast,300,2013-11-18 03:49:00
10:10 PM,35.4,30.0,81,29.77,10.0,WNW,25.3,33.4,N/A,,Overcast,290,2013-11-18 04:10:00
10:29 PM,34.7,29.8,82,29.77,10.0,NW,23.0,33.4,N/A,,Overcast,310,2013-11-18 04:29:00
10:50 PM,32.7,27.3,81,29.78,10.0,NW,28.8,40.3,N/A,,Scattered Clouds,310,2013-11-18 04:50:00
11:09 PM,32.2,27.3,82,29.80,10.0,WNW,20.7,33.4,N/A,,Mostly Cloudy,300,2013-11-18 05:09:00
11:30 PM,32.2,27.5,83,29.81,10.0,WNW,24.2,28.8,N/A,,Overcast,300,2013-11-18 05:30:00
11:49 PM,32.0,27.1,82,29.82,10.0,WNW,21.9,28.8,N/A,,Mostly Cloudy,300,2013-11-18 05:49:00